COLIBRI-S (RS67S)

Last updated on Wed Feb 05 2025 00:03:01 GMT+0000 (Coordinated Universal Time)

1 61746U 24199M 25035.58678731 .00021009 00000+0 77615-3 0 9999 2 61746 97.3769 265.2413 0011930 269.6163 90.3709 15.27691880 60974
UTC large
Height (km)
Speed (km/s)
/
Latitude / Longitude
Inclination (degrees)
Orbital Period (minutes)
Azimuth
Elevation
Range (km)
Doppler Factor

Next 0 passes for location: London (51.5072 / 0.1276)

Sorry there are no passes over London.